• In Netherlands
  • List of Countries
  • For 7 days
  • Water Temperature
  • Satellite Maps
  • Weather Map
  • Weather Widgets
  • user-avatar
    Login

    Hourly Weather Daraganov

    Today, 21 October, Sunday

    Time Temperature Precipitation Wind Pressure Humidity
    00:00 +14°C° 0 mm 0 mps 760 mmHg 71%
    01:00 +14°C° 0 mm 0 mps 760 mmHg 73%
    02:00 +14°C° 0 mm 0 mps 760 mmHg 74%
    03:00 +13°C° 0 mm 0 mps 760 mmHg 75%
    04:00 +13°C° 0 mm 0 mps 760 mmHg 77%
    05:00 +13°C° 0 mm 0 mps 760 mmHg 78%
    06:00 +14°C° 0 mm 1 mps 760 mmHg 79%
    07:00 +15°C° 0 mm 1 mps 760 mmHg 75%
    08:00 +16°C° 0 mm 1 mps 760 mmHg 71%
    09:00 +17°C° 0 mm 2 mps 761 mmHg 67%
    10:00 +18°C° 0 mm 2 mps 761 mmHg 62%
    11:00 +19°C° 0 mm 2 mps 761 mmHg 57%
    12:00 +20°C° 0 mm 2 mps 761 mmHg 53%
    13:00 +21°C° 0 mm 2 mps 761 mmHg 51%
    14:00 +21°C° 0 mm 2 mps 761 mmHg 50%
    15:00 +23°C° 0 mm 1 mps 761 mmHg 49%
    16:00 +22°C° 0.2 mm 1 mps 761 mmHg 53%
    17:00 +21°C° 0.2 mm 1 mps 761 mmHg 58%
    18:00 +19°C° 0.2 mm 2 mps 761 mmHg 63%
    19:00 +18°C° 0.2 mm 2 mps 761 mmHg 66%
    20:00 +18°C° 0.2 mm 2 mps 761 mmHg 70%
    21:00 +17°C° 0.2 mm 2 mps 762 mmHg 74%
    22:00 +17°C° 0.6 mm 2 mps 762 mmHg 77%
    23:00 +17°C° 0.6 mm 2 mps 762 mmHg 79%

    Tomorrow, 22 October, Monday

    Time Temperature Precipitation Wind Pressure Humidity
    00:00 +17°C° 0.6 mm 3 mps 762 mmHg 82%
    01:00 +17°C° 1.5 mm 3 mps 762 mmHg 83%
    02:00 +16°C° 1.5 mm 3 mps 762 mmHg 84%
    03:00 +15°C° 1.5 mm 4 mps 762 mmHg 86%
    04:00 +15°C° 2.5 mm 4 mps 761 mmHg 87%
    05:00 +15°C° 2.5 mm 4 mps 761 mmHg 88%
    06:00 +15°C° 2.5 mm 4 mps 761 mmHg 88%
    07:00 +15°C° 2.1 mm 4 mps 761 mmHg 87%
    08:00 +15°C° 2.1 mm 5 mps 761 mmHg 85%
    09:00 +15°C° 2.1 mm 5 mps 762 mmHg 84%
    10:00 +16°C° 1.3 mm 5 mps 762 mmHg 82%
    11:00 +16°C° 1.3 mm 5 mps 762 mmHg 80%
    12:00 +16°C° 1.3 mm 5 mps 762 mmHg 78%
    13:00 +18°C° 0.2 mm 4 mps 761 mmHg 75%
    14:00 +19°C° 0.2 mm 4 mps 761 mmHg 71%
    15:00 +19°C° 0.2 mm 4 mps 761 mmHg 68%
    16:00 +19°C° 0.1 mm 3 mps 761 mmHg 72%
    17:00 +18°C° 0.1 mm 3 mps 761 mmHg 75%
    18:00 +18°C° 0.1 mm 2 mps 761 mmHg 79%
    19:00 +18°C° 0.3 mm 3 mps 761 mmHg 81%
    20:00 +17°C° 0.3 mm 3 mps 761 mmHg 82%
    21:00 +17°C° 0.3 mm 3 mps 761 mmHg 84%
    22:00 +16°C° 0 mm 3 mps 761 mmHg 86%
    23:00 +16°C° 0 mm 3 mps 761 mmHg 88%

    Day after tomorrow, 23 October, Tuesday

    Time Temperature Precipitation Wind Pressure Humidity
    00:00 +16°C° 0 mm 3 mps 761 mmHg 90%
    01:00 +14°C° 0 mm 3 mps 761 mmHg 91%
    02:00 +14°C° 0 mm 3 mps 761 mmHg 93%
    03:00 +14°C° 0 mm 3 mps 761 mmHg 94%
    04:00 +14°C° 0 mm 3 mps 760 mmHg 93%
    05:00 +13°C° 0 mm 3 mps 760 mmHg 91%
    06:00 +13°C° 0 mm 3 mps 760 mmHg 89%
    07:00 +13°C° 0 mm 3 mps 760 mmHg 87%
    08:00 +13°C° 0 mm 3 mps 760 mmHg 85%
    09:00 +14°C° 0 mm 3 mps 760 mmHg 82%
    10:00 +15°C° 0 mm 4 mps 760 mmHg 75%
    11:00 +17°C° 0 mm 4 mps 760 mmHg 68%
    12:00 +18°C° 0 mm 4 mps 760 mmHg 61%
    13:00 +18°C° 0 mm 4 mps 760 mmHg 59%
    14:00 +18°C° 0 mm 4 mps 759 mmHg 57%
    15:00 +17°C° 0 mm 5 mps 759 mmHg 55%
    16:00 +17°C° 0 mm 4 mps 759 mmHg 58%
    17:00 +17°C° 0 mm 3 mps 758 mmHg 61%
    18:00 +16°C° 0 mm 2 mps 758 mmHg 65%
    19:00 +14°C° 0 mm 3 mps 758 mmHg 69%
    20:00 +14°C° 0 mm 3 mps 758 mmHg 73%
    21:00 +14°C° 0 mm 3 mps 758 mmHg 77%
    22:00 +13°C° 0.1 mm 3 mps 757 mmHg 78%
    23:00 +13°C° 0.1 mm 3 mps 757 mmHg 79%

    24 October, Wednesday

    Time Temperature Precipitation Wind Pressure Humidity
    00:00 +13°C° 0.1 mm 4 mps 757 mmHg 80%
    01:00 +12°C° 0 mm 3 mps 756 mmHg 80%
    02:00 +12°C° 0 mm 3 mps 756 mmHg 80%
    03:00 +11°C° 0 mm 3 mps 755 mmHg 80%
    04:00 +11°C° 0 mm 3 mps 755 mmHg 80%
    05:00 +11°C° 0 mm 3 mps 755 mmHg 81%
    06:00 +10°C° 0 mm 3 mps 754 mmHg 81%
    07:00 +11°C° 0 mm 4 mps 754 mmHg 75%
    08:00 +12°C° 0 mm 4 mps 753 mmHg 69%
    09:00 +13°C° 0 mm 5 mps 753 mmHg 62%
    10:00 +14°C° 0 mm 6 mps 752 mmHg 59%
    11:00 +15°C° 0 mm 6 mps 752 mmHg 55%
    12:00 +16°C° 0 mm 7 mps 751 mmHg 52%
    13:00 +16°C° 0 mm 7 mps 750 mmHg 54%
    14:00 +16°C° 0 mm 8 mps 749 mmHg 56%
    15:00 +16°C° 0 mm 8 mps 748 mmHg 58%
    16:00 +16°C° 0 mm 7 mps 748 mmHg 62%
    17:00 +15°C° 0 mm 6 mps 747 mmHg 65%
    18:00 +14°C° 0 mm 5 mps 747 mmHg 69%
    19:00 +14°C° 0 mm 5 mps 747 mmHg 70%
    20:00 +14°C° 0 mm 5 mps 747 mmHg 71%
    21:00 +14°C° 0 mm 5 mps 746 mmHg 73%
    22:00 +14°C° 0.1 mm 5 mps 746 mmHg 75%
    23:00 +13°C° 0.1 mm 4 mps 746 mmHg 78%

    25 October, Thursday

    Time Temperature Precipitation Wind Pressure Humidity
    00:00 +13°C° 0.1 mm 4 mps 745 mmHg 81%
    01:00 +12°C° 0.2 mm 4 mps 745 mmHg 81%
    02:00 +12°C° 0.2 mm 4 mps 745 mmHg 82%
    03:00 +12°C° 0.2 mm 4 mps 745 mmHg 82%
    04:00 +12°C° 0.2 mm 4 mps 745 mmHg 83%
    05:00 +12°C° 0.2 mm 4 mps 745 mmHg 84%
    06:00 +12°C° 0.2 mm 4 mps 745 mmHg 85%
    07:00 +11°C° 0.1 mm 4 mps 745 mmHg 81%
    08:00 +10°C° 0.1 mm 5 mps 745 mmHg 77%
    09:00 +10°C° 0.1 mm 5 mps 746 mmHg 74%
    10:00 +10°C° 0 mm 5 mps 746 mmHg 67%
    11:00 +10°C° 0 mm 5 mps 746 mmHg 61%
    12:00 +10°C° 0 mm 5 mps 747 mmHg 55%
    13:00 +10°C° 0 mm 5 mps 747 mmHg 52%
    14:00 +10°C° 0 mm 6 mps 748 mmHg 48%
    15:00 +10°C° 0 mm 6 mps 748 mmHg 45%
    16:00 +9°C° 0 mm 5 mps 748 mmHg 47%
    17:00 +9°C° 0 mm 5 mps 749 mmHg 48%
    18:00 +8°C° 0 mm 5 mps 749 mmHg 49%
    19:00 +8°C° 0 mm 4 mps 749 mmHg 52%
    20:00 +8°C° 0 mm 4 mps 750 mmHg 54%
    21:00 +8°C° 0 mm 4 mps 750 mmHg 57%
    22:00 +7°C° 0 mm 4 mps 751 mmHg 59%
    23:00 +7°C° 0 mm 4 mps 751 mmHg 61%

    26 October, Friday

    Time Temperature Precipitation Wind Pressure Humidity
    00:00 +7°C° 0 mm 4 mps 751 mmHg 62%
    01:00 +6°C° 0 mm 4 mps 751 mmHg 66%
    02:00 +6°C° 0 mm 4 mps 752 mmHg 70%
    03:00 +6°C° 0 mm 4 mps 752 mmHg 74%
    04:00 +5°C° 0 mm 4 mps 753 mmHg 77%
    05:00 +5°C° 0 mm 4 mps 753 mmHg 79%
    06:00 +5°C° 0 mm 4 mps 754 mmHg 82%
    07:00 +5°C° 0 mm 4 mps 754 mmHg 78%
    08:00 +6°C° 0 mm 4 mps 754 mmHg 75%
    09:00 +6°C° 0 mm 4 mps 755 mmHg 72%
    10:00 +7°C° 0.1 mm 5 mps 755 mmHg 67%
    11:00 +8°C° 0.1 mm 5 mps 756 mmHg 62%
    12:00 +8°C° 0.1 mm 6 mps 756 mmHg 56%
    13:00 +9°C° 0.1 mm 6 mps 756 mmHg 53%
    14:00 +9°C° 0.1 mm 6 mps 756 mmHg 49%
    15:00 +9°C° 0.1 mm 6 mps 756 mmHg 45%
    16:00 +9°C° 0 mm 5 mps 757 mmHg 47%
    17:00 +8°C° 0 mm 4 mps 758 mmHg 49%
    18:00 +8°C° 0 mm 4 mps 758 mmHg 51%
    19:00 +7°C° 0 mm 4 mps 759 mmHg 53%
    20:00 +8°C° 0 mm 3 mps 759 mmHg 54%
    21:00 +7°C° 0 mm 3 mps 760 mmHg 56%
    22:00 +7°C° 0 mm 3 mps 760 mmHg 57%
    23:00 +7°C° 0 mm 3 mps 760 mmHg 58%
    Show more